Weather History for Truckee-Tahoe, CA

Change the Weather History Date:

Friday, April 5, 2013

  Actual Average Record
Temperature  
Mean Temperature 39 °F -  
Max Temperature 50 °F 53 °F 69 °F (1960)
Min Temperature 28 °F 26 °F 15 °F (2009)
Degree Days  
Heating Degree Days 26    
Moisture  
Dew Point 26 °F    
Average Humidity 61    
Maximum Humidity 87    
Minimum Humidity 37    
Precipitation  
Precipitation 0.00 in - - ()
Sea Level Pressure  
Sea Level Pressure 30.14 in    
Wind  
Wind Speed 6 mph (SSW)    
Max Wind Speed 16 mph    
Max Gust Speed 26 mph    
Visibility 10 miles    
Events      
Averages and records for this station are not official NWS values.
T = Trace of Precipitation, MM = Missing Value Source: NWS Daily Summary

Daily Weather History Graph

Daily Weather History Graph

Search for Another Location

Airport:

Trip Planner

Search our weather history database for the weather conditions in past years. The results will help you decide how hot, cold, wet, or windy it might be!

Date:

Astronomy

Apr. 05, 2013 Rise Set
Actual Time 6:38 AM PDT 7:28 PM PDT
Civil Twilight 6:10 AM PDT 7:55 PM PDT
Nautical Twilight 5:38 AM PDT 8:28 PM PDT
Astronomical Twilight 5:05 AM PDT 9:01 PM PDT
Moon 3:47 AM PDT (4/5) 2:59 PM PDT (4/5)
Length of Visible Light 13h 44m
Length of Day
12h 50m
Waning Crescent, 22% of the Moon is Illuminated
Apr 5
Waning Crescent
Apr 10
New
Apr 18
First Quarter
Apr 25
Full
May 2
Last Quarter

Hourly Weather History & Observations

Time (PDT) Temp. Windchill Dew Point Humidity Pressure Visibility Wind Dir Wind Speed Gust Speed Precip Events Conditions
12:15 AM 37.4 °F 32.1 °F 32.0 °F 81% 30.13 in 10.0 mi WSW 6.9 mph - N/A   Mostly Cloudy
12:35 AM 37.4 °F 34.9 °F 32.0 °F 81% 30.13 in 10.0 mi SSW 3.5 mph - N/A   Mostly Cloudy
12:55 AM 37.4 °F 31.4 °F 30.2 °F 75% 30.13 in 10.0 mi SW 8.1 mph - N/A   Mostly Cloudy
1:15 AM 37.4 °F 29.8 °F 28.4 °F 70% 30.13 in 10.0 mi SSW 11.5 mph - N/A   Mostly Cloudy
1:35 AM 37.4 °F 32.8 °F 28.4 °F 70% 30.13 in 10.0 mi SW 5.8 mph - N/A   Scattered Clouds
1:55 AM 37.4 °F - 28.4 °F 70% 30.13 in 10.0 mi Calm Calm - N/A   Partly Cloudy
2:15 AM 35.6 °F - 28.4 °F 75% 30.13 in 10.0 mi Calm Calm - N/A   Clear
2:35 AM 35.6 °F - 28.4 °F 75% 30.12 in 10.0 mi Calm Calm - N/A   Clear
2:55 AM 33.8 °F 30.8 °F 28.4 °F 81% 30.12 in 10.0 mi East 3.5 mph - N/A   Clear
3:15 AM 33.8 °F 28.6 °F 28.4 °F 81% 30.12 in 10.0 mi East 5.8 mph - N/A   Scattered Clouds
3:35 AM 32.0 °F - 28.4 °F 87% 30.12 in 10.0 mi Calm Calm - N/A   Scattered Clouds
3:55 AM 35.6 °F - 28.4 °F 75% 30.12 in 10.0 mi Calm Calm - N/A   Mostly Cloudy
4:15 AM 32.0 °F 27.5 °F 26.6 °F 80% 30.12 in 10.0 mi South 4.6 mph - N/A   Scattered Clouds
4:35 AM 32.0 °F 28.7 °F 26.6 °F 80% 30.13 in 10.0 mi SSW 3.5 mph - N/A   Mostly Cloudy
4:55 AM 33.8 °F - 26.6 °F 75% 30.14 in 10.0 mi Calm Calm - N/A   Mostly Cloudy
5:15 AM 32.0 °F 28.7 °F 28.4 °F 87% 30.13 in 10.0 mi South 3.5 mph - N/A   Mostly Cloudy
5:35 AM 32.0 °F - 26.6 °F 80% 30.14 in 10.0 mi Calm Calm - N/A   Mostly Cloudy
5:55 AM 33.8 °F 30.8 °F 26.6 °F 75% 30.13 in 10.0 mi South 3.5 mph - N/A   Mostly Cloudy
6:15 AM 30.2 °F - 26.6 °F 86% 30.14 in 10.0 mi Calm Calm - N/A   Scattered Clouds
6:35 AM 30.2 °F 26.7 °F 26.6 °F 86% 30.14 in 10.0 mi SE 3.5 mph - N/A   Clear
6:50 AM 28.4 °F 23.3 °F 24.8 °F 86% 30.13 in 10.0 mi SE 4.6 mph - N/A   Scattered Clouds
7:45 AM 32.0 °F - 28.4 °F 87% 30.14 in 10.0 mi Calm Calm - N/A   Partly Cloudy
8:55 AM 41.0 °F - 23.0 °F 49% 30.15 in 10.0 mi Calm Calm - N/A   Partly Cloudy
9:45 AM 44.6 °F 39.2 °F 24.8 °F 46% 30.16 in 10.0 mi South 10.4 mph - N/A   Partly Cloudy
10:55 AM 48.2 °F - 23.0 °F 37% 30.15 in 10.0 mi SSW 10.4 mph 16.1 mph N/A   Partly Cloudy
11:50 AM 48.2 °F - 24.8 °F 40% 30.15 in 10.0 mi SSE 11.5 mph - N/A   Partly Cloudy
12:45 PM 50.0 °F - 26.6 °F 40% 30.15 in 10.0 mi South 11.5 mph 17.3 mph N/A   Mostly Cloudy
1:45 PM 50.0 °F - 26.6 °F 40% 30.14 in 10.0 mi WSW 15.0 mph - N/A   Mostly Cloudy
2:50 PM 50.0 °F - 26.6 °F 40% 30.14 in 10.0 mi South 12.7 mph 16.1 mph N/A   Mostly Cloudy
3:45 PM 50.0 °F - 26.6 °F 40% 30.13 in 10.0 mi SW 16.1 mph - N/A   Mostly Cloudy
4:50 PM 50.0 °F - 26.6 °F 40% 30.12 in 10.0 mi WSW 13.8 mph 26.5 mph N/A   Mostly Cloudy
5:50 PM 48.2 °F - 23.0 °F 37% 30.13 in 10.0 mi SW 15.0 mph 24.2 mph N/A   Mostly Cloudy
5:55 PM 48.2 °F - 23.0 °F 37% 30.13 in 10.0 mi SW 15.0 mph 24.2 mph N/A   Clear
6:15 PM 48.2 °F - 23.0 °F 37% 30.13 in 10.0 mi SSW 16.1 mph 23.0 mph N/A   Clear
6:35 PM 46.4 °F 40.4 °F 24.8 °F 43% 30.13 in 10.0 mi SW 13.8 mph 18.4 mph N/A   Clear
6:55 PM 44.6 °F 39.2 °F 24.8 °F 46% 30.13 in 10.0 mi SSW 10.4 mph 18.4 mph N/A   Clear
7:15 PM 41.0 °F 35.8 °F 24.8 °F 53% 30.14 in 10.0 mi SSW 8.1 mph - N/A   Clear
7:35 PM 41.0 °F 35.8 °F 24.8 °F 53% 30.14 in 10.0 mi SSW 8.1 mph - N/A   Partly Cloudy
7:55 PM 41.0 °F 34.3 °F 26.6 °F 57% 30.14 in 10.0 mi SW 11.5 mph - N/A   Mostly Cloudy
8:15 PM 41.0 °F 34.7 °F 26.6 °F 57% 30.14 in 10.0 mi SSW 10.4 mph - N/A   Overcast
8:35 PM 41.0 °F 34.7 °F 26.6 °F 57% 30.13 in 10.0 mi SSW 10.4 mph - N/A   Overcast
8:55 PM 39.2 °F 33.6 °F 26.6 °F 61% 30.15 in 10.0 mi South 8.1 mph - N/A   Mostly Cloudy
9:15 PM 39.2 °F - 26.6 °F 61% 30.16 in 10.0 mi Calm Calm - N/A   Partly Cloudy
9:35 PM 37.4 °F 32.8 °F 24.8 °F 60% 30.16 in 10.0 mi South 5.8 mph - N/A   Clear
9:55 PM 37.4 °F 30.8 °F 24.8 °F 60% 30.16 in 10.0 mi SSW 9.2 mph - N/A   Clear
10:15 PM 39.2 °F 35.9 °F 21.2 °F 49% 30.16 in 10.0 mi SW 4.6 mph - N/A   Clear
10:35 PM 39.2 °F 32.5 °F 21.2 °F 49% 30.16 in 10.0 mi SSW 10.4 mph 16.1 mph N/A   Partly Cloudy
10:55 PM 39.2 °F 35.0 °F 21.2 °F 49% 30.17 in 10.0 mi WSW 5.8 mph - N/A   Mostly Cloudy
11:15 PM 39.2 °F 34.2 °F 23.0 °F 52% 30.15 in 10.0 mi SSW 6.9 mph - N/A   Overcast
11:35 PM 39.2 °F 33.0 °F 21.2 °F 49% 30.16 in 10.0 mi SSW 9.2 mph - N/A   Overcast
11:55 PM 39.2 °F 33.0 °F 19.4 °F 45% 30.16 in 10.0 mi SSW 9.2 mph - N/A   Overcast